Terminal Aerodrome Forecast
Issued by NWS Dodge City, KS

Home | Current Version | Previous Version | Text Only | Print | Product List | Glossary On
Versions: 1 2 3 4 5 6 7 8 9 10 11 12 13 14 15 16 17
000
FTUS43 KDDC 231720
TAFDDC
TAF
KDDC 231720Z 2318/2418 34013G20KT P6SM SCT040
     FM232000 34014G24KT P6SM VCSH BKN060
     FM240100 32009KT P6SM FEW070=

USA.gov is the U.S. government's official web portal to all federal, state and local government web resources and services.